This is the latest recevied weather packets stored in our database for station/object N0NB. If no packets are shown the sender has not sent any weather packets the latest 10 day(s).
| Time | Temp. | Humidity | Pressure | Rain* | Wind** | Luminosity | Snow |
|---|---|---|---|---|---|---|---|
| 1788270317 | 26.67° C | 59% | 1013 hPa | 0 mm | - | 225 W/m² | - |
| 1788269717 | 26.67° C | 60% | 1013.2 hPa | 0 mm | - | 186 W/m² | - |
| 1788269117 | 26.11° C | 60% | 1013 hPa | 0 mm | - | 144 W/m² | - |
| 1788268517 | 26.11° C | 60% | 1013.1 hPa | 0 mm | - | 119 W/m² | - |
| 1788267917 | 25.56° C | 61% | 1013.2 hPa | 0 mm | - | 91 W/m² | - |
| 1788267317 | 25° C | 63% | 1013.2 hPa | 0 mm | - | 70 W/m² | - |
| 1788266717 | 25° C | 64% | 1013.2 hPa | 0 mm | - | 37 W/m² | - |
| 1788266117 | 25° C | 63% | 1013.4 hPa | 0 mm | - | 28 W/m² | - |
| 1788265517 | 25° C | 63% | 1013.2 hPa | 0 mm | - | 18 W/m² | - |
| 1788264917 | 25° C | 63% | 1013 hPa | 0 mm | - | 9 W/m² | - |
| 1788264317 | 25° C | 64% | 1012.9 hPa | 0 mm | - | 3 W/m² | - |
| 1788263717 | 25° C | 63% | 1012.8 hPa | 0 mm | - | 0 W/m² | - |
| 1788263117 | 25° C | 64% | 1012.7 hPa | 0 mm | - | 0 W/m² | - |
| 1788262517 | 25° C | 64% | 1012.8 hPa | 0 mm | - | 0 W/m² | - |
| 1788261917 | 25° C | 63% | 1012.8 hPa | 0 mm | - | 0 W/m² | - |
| 1788261317 | 25° C | 64% | 1012.8 hPa | 0 mm | - | 0 W/m² | - |
| 1788260717 | 24.44° C | 66% | 1012.9 hPa | 0 mm | - | 0 W/m² | - |
| 1788260117 | 24.44° C | 65% | 1013 hPa | 0 mm | - | 0 W/m² | - |
| 1788259517 | 25° C | 63% | 1013 hPa | 0 mm | - | 0 W/m² | - |
| 1788258917 | 25° C | 62% | 1012.9 hPa | 0 mm | - | 0 W/m² | - |
| 1788258317 | 25.56° C | 63% | 1013.1 hPa | 0 mm | - | 0 W/m² | - |
| 1788257717 | 25.56° C | 62% | 1013.2 hPa | 0 mm | - | 0 W/m² | - |
| 1788257117 | 25.56° C | 62% | 1013.1 hPa | 0 mm | - | 0 W/m² | - |
| 1788256517 | 25.56° C | 62% | 1013.2 hPa | 0 mm | - | 0 W/m² | - |
| 1788255917 | 26.11° C | 61% | 1013.1 hPa | 0 mm | - | 0 W/m² | - |
* Rain latest hour (hover to see other rain measurements)
** Current wind speed in m/s (hover to see current wind gust speed)